DW5330 Weather Reports


time (UTC)temp
C
wind
direction
speed
KPH
gust
KPH
rain 1hr
cm
rain 24hr
cm
rain mn
cm
humidity
%
barometer
mb
20260503184005 18 296 4.8 8.0 0.00 0.33 0.00 85 1016.2
20260503183005 18 293 1.6 3.2 0.00 0.33 0.00 85 1016.2
20260503182006 18 42 0.0 3.2 0.00 0.33 0.00 85 1016.1
20260503181004 18 337 1.6 3.2 0.00 0.33 0.00 84 1016.1
20260503180504 18 27 0.0 4.8 0.00 0.33 0.00 84 1016.1
20260503180005 18 95 1.6 4.8 0.00 0.33 0.00 84 1016.1
20260503175505 18 317 1.6 4.8 0.00 0.33 0.00 84 1016.1
20260503175005 18 336 1.6 4.8 0.00 0.33 0.00 84 1016.2
20260503174504 18 335 3.2 4.8 0.00 0.33 0.00 84 1016.2
20260503174005 18 324 4.8 8.0 0.00 0.33 0.00 84 1016.2
20260503172004 18 324 1.6 4.8 0.00 0.33 0.00 82 1016.5
20260503171504 19 300 1.6 3.2 0.00 0.33 0.00 82 1016.5
20260503171004 19 71 1.6 3.2 0.00 0.33 0.00 82 1016.5
20260503170505 19 156 1.6 4.8 0.00 0.33 0.00 81 1016.5
20260503151007 20 321 3.2 8.0 0.00 0.33 0.00 78 1017.5
20260503131007 20 279 6.4 14.5 0.00 0.20 0.18 78 1018.3
20260503110506 21 291 11.3 19.3 0.10 0.15 0.13 83 1018.6
20260503072006 21 273 6.4 11.3 0.00 0.05 0.03 76 1018.3
20260503055005 22 280 3.2 9.7 0.00 0.05 0.03 73 1018.7
20260503054506 22 329 8.0 14.5 0.00 0.05 0.03 73 1018.8
20260503053506 22 284 4.8 11.3 0.00 0.05 0.03 74 1018.8
20260503051505 22 299 3.2 8.0 0.00 0.05 0.03 73 1019.0
20260503051006 22 348 3.2 11.3 0.00 0.05 0.03 74 1019.0
20260503050506 22 312 3.2 12.9 0.00 0.05 0.03 74 1019.0
20260503050006 22 296 4.8 9.7 0.00 0.05 0.03 74 1019.0
20260503044505 22 285 3.2 9.7 0.00 0.05 0.03 73 1019.1
20260503043506 22 345 8.0 14.5 0.00 0.05 0.03 72 1019.1
20260503043005 22 317 3.2 11.3 0.00 0.05 0.03 71 1019.1
20260503042505 22 334 4.8 14.5 0.00 0.05 0.03 72 1019.1
20260503042006 22 313 3.2 12.9 0.00 0.05 0.03 71 1019.2
20260503041505 22 309 3.2 14.5 0.00 0.05 0.03 70 1019.3
20260503041005 22 20 4.8 11.3 0.00 0.05 0.03 70 1019.2
20260503040006 22 347 1.6 9.7 0.00 0.05 0.03 68 1019.3
20260503035505 22 3 3.2 11.3 0.00 0.05 0.03 68 1019.3
20260503034506 22 301 4.8 11.3 0.00 0.05 0.03 71 1019.4
20260503032505 22 176 3.2 16.1 0.00 0.05 0.03 69 1019.6
20260503031506 23 343 1.6 11.3 0.00 0.05 0.03 66 1019.6
20260503030506 23 336 4.8 11.3 0.00 0.05 0.03 67 1019.9
20260503030006 23 278 4.8 12.9 0.00 0.05 0.03 67 1020.0
20260503025005 23 127 3.2 9.7 0.00 0.05 0.03 66 1020.2
20260503024506 23 47 1.6 12.9 0.00 0.05 0.03 66 1020.2
20260503024005 22 345 4.8 12.9 0.00 0.05 0.03 66 1020.3
20260503023005 22 139 3.2 12.9 0.00 0.05 0.03 66 1020.3
20260503022006 22 266 4.8 12.9 0.00 0.05 0.03 67 1020.5
20260503021505 22 16 1.6 11.3 0.00 0.05 0.03 66 1020.7
20260503020506 22 55 3.2 12.9 0.00 0.05 0.03 66 1020.9
20260503015505 22 288 4.8 9.7 0.00 0.05 0.03 65 1021.0
20260503014505 22 294 4.8 9.7 0.00 0.05 0.03 66 1021.2
20260503014005 22 329 1.6 9.7 0.00 0.05 0.03 65 1021.3
20260503013506 22 307 4.8 11.3 0.00 0.05 0.03 66 1021.2
20260503012505 22 221 3.2 11.3 0.00 0.05 0.03 65 1021.4
20260503012006 22 139 4.8 11.3 0.00 0.05 0.03 66 1021.6
20260503011505 22 313 4.8 14.5 0.00 0.05 0.03 65 1021.5
20260503011005 22 275 3.2 12.9 0.00 0.05 0.03 66 1021.5
20260503010505 22 349 3.2 16.1 0.00 0.05 0.03 64 1021.6
20260503004005 21 303 11.3 20.9 0.00 0.05 0.03 65 1022.0
20260503003505 21 294 11.3 22.5 0.00 0.05 0.03 66 1022.0
20260503002006 22 294 8.0 14.5 0.00 0.05 0.03 63 1022.2
20260503001006 22 288 6.4 12.9 0.00 0.05 0.03 65 1022.3
20260503000005 21 293 4.8 14.5 0.00 0.05 0.03 66 1022.2
20260502235506 21 299 4.8 16.1 0.00 0.05 0.03 66 1022.3
20260502234005 21 298 11.3 19.3 0.00 0.05 0.03 66 1022.3
20260502231506 21 308 4.8 12.9 0.00 0.05 0.03 69 1022.7
20260502230005 21 283 9.7 12.9 0.00 0.05 0.03 72 1022.6
20260502223505 20 285 8.0 12.9 0.00 0.05 0.03 74 1022.6
20260502223005 20 296 6.4 11.3 0.00 0.05 0.03 75 1022.6
20260502221005 20 301 8.0 11.3 0.00 0.05 0.03 77 1022.6
20260502215505 19 297 4.8 11.3 0.00 0.05 0.03 78 1022.4
20260502214005 19 291 8.0 11.3 0.00 0.05 0.03 78 1022.3
20260502213505 19 290 4.8 11.3 0.00 0.05 0.03 78 1022.2
20260502210505 19 289 8.0 12.9 0.00 0.05 0.03 78 1022.1
20260502205005 18 312 6.4 11.3 0.00 0.05 0.03 79 1021.9
20260502204505 18 296 8.0 11.3 0.00 0.05 0.03 79 1022.0
20260502203505 18 281 4.8 8.0 0.00 0.05 0.03 80 1022.0
20260502203005 18 286 4.8 8.0 0.00 0.05 0.03 80 1022.1
20260502202505 18 281 8.0 9.7 0.00 0.05 0.03 79 1022.2
20260502202005 18 299 4.8 9.7 0.00 0.05 0.03 79 1022.1
20260502200505 18 285 4.8 8.0 0.00 0.05 0.03 80 1022.1
20260502195005 19 285 8.0 9.7 0.00 0.05 0.03 80 1022.0
20260502193005 19 299 4.8 9.7 0.00 0.05 0.03 80 1021.8